When you browse on this site, cookies collect data to enhance your experience and personalize the content and advertising you see.
Visit our Privacy Policy to learn more. By continuing to use the site, you agree to this use of cookies and data.
  • In Denmark
  • List of Countries
  • For 7 days
  • Water Temperature
  • Satellite Maps
  • Weather Map
  • Weather Widgets
  • user-avatar
    Login

    Hourly Weather Strikino

    Today, 23 May, Thursday

    Time Temperature Precipitation Wind Pressure Humidity
    00:00 +16°C° 0 mm 3 mps 741 mmHg 93%
    01:00 +15°C° 0 mm 2 mps 741 mmHg 94%
    02:00 +15°C° 0 mm 2 mps 741 mmHg 94%
    03:00 +15°C° 0 mm 2 mps 741 mmHg 94%
    04:00 +15°C° 0 mm 2 mps 741 mmHg 94%
    05:00 +15°C° 0 mm 2 mps 741 mmHg 94%
    06:00 +17°C° 0 mm 2 mps 741 mmHg 89%
    07:00 +18°C° 0 mm 2 mps 741 mmHg 83%
    08:00 +20°C° 0 mm 2 mps 741 mmHg 78%
    09:00 +21°C° 0 mm 2 mps 740 mmHg 72%
    10:00 +23°C° 0 mm 2 mps 740 mmHg 66%
    11:00 +25°C° 0 mm 3 mps 740 mmHg 61%
    12:00 +25°C° 0.1 mm 3 mps 740 mmHg 59%
    13:00 +25°C° 0.1 mm 3 mps 740 mmHg 58%
    14:00 +26°C° 0.1 mm 3 mps 740 mmHg 56%
    15:00 +25°C° 0.4 mm 3 mps 740 mmHg 61%
    16:00 +25°C° 0.4 mm 3 mps 740 mmHg 66%
    17:00 +25°C° 0.4 mm 2 mps 740 mmHg 71%
    18:00 +23°C° 0.1 mm 2 mps 740 mmHg 75%
    19:00 +20°C° 0.1 mm 2 mps 740 mmHg 79%
    20:00 +18°C° 0.1 mm 2 mps 740 mmHg 83%
    21:00 +18°C° 0 mm 2 mps 740 mmHg 85%
    22:00 +17°C° 0 mm 2 mps 740 mmHg 87%
    23:00 +16°C° 0 mm 2 mps 740 mmHg 89%

    Tomorrow, 24 May, Friday

    Time Temperature Precipitation Wind Pressure Humidity
    00:00 +16°C° 0 mm 2 mps 740 mmHg 90%
    01:00 +16°C° 0 mm 2 mps 740 mmHg 91%
    02:00 +15°C° 0 mm 2 mps 741 mmHg 93%
    03:00 +15°C° 0 mm 2 mps 741 mmHg 93%
    04:00 +16°C° 0 mm 2 mps 741 mmHg 93%
    05:00 +16°C° 0 mm 1 mps 741 mmHg 93%
    06:00 +17°C° 0 mm 2 mps 742 mmHg 89%
    07:00 +19°C° 0 mm 2 mps 742 mmHg 85%
    08:00 +20°C° 0 mm 2 mps 742 mmHg 81%
    09:00 +20°C° 0.7 mm 3 mps 742 mmHg 81%
    10:00 +21°C° 0.7 mm 3 mps 742 mmHg 81%
    11:00 +21°C° 0.7 mm 4 mps 742 mmHg 81%
    12:00 +21°C° 0.1 mm 4 mps 742 mmHg 81%
    13:00 +21°C° 0.1 mm 4 mps 743 mmHg 81%
    14:00 +21°C° 0.1 mm 4 mps 743 mmHg 81%
    15:00 +20°C° 0 mm 4 mps 742 mmHg 83%
    16:00 +19°C° 0 mm 4 mps 742 mmHg 85%
    17:00 +19°C° 0 mm 5 mps 742 mmHg 87%
    18:00 +18°C° 0.1 mm 4 mps 742 mmHg 89%
    19:00 +17°C° 0.1 mm 4 mps 742 mmHg 92%
    20:00 +16°C° 0.1 mm 3 mps 743 mmHg 95%
    21:00 +16°C° 0 mm 3 mps 742 mmHg 95%
    22:00 +16°C° 0 mm 3 mps 742 mmHg 96%
    23:00 +15°C° 0 mm 4 mps 742 mmHg 96%

    Day after tomorrow, 25 May, Saturday

    Time Temperature Precipitation Wind Pressure Humidity
    00:00 +14°C° 0.1 mm 4 mps 742 mmHg 96%
    01:00 +14°C° 0.1 mm 4 mps 742 mmHg 97%
    02:00 +14°C° 0.1 mm 4 mps 742 mmHg 97%
    03:00 +15°C° 0.4 mm 4 mps 742 mmHg 96%
    04:00 +15°C° 0.4 mm 4 mps 742 mmHg 96%
    05:00 +15°C° 0.4 mm 4 mps 742 mmHg 96%
    06:00 +17°C° 0 mm 4 mps 742 mmHg 94%
    07:00 +17°C° 0 mm 3 mps 741 mmHg 92%
    08:00 +18°C° 0 mm 3 mps 741 mmHg 90%
    09:00 +19°C° 0.1 mm 3 mps 741 mmHg 86%
    10:00 +20°C° 0.1 mm 3 mps 741 mmHg 82%
    11:00 +21°C° 0.1 mm 3 mps 740 mmHg 78%
    12:00 +21°C° 2.1 mm 3 mps 740 mmHg 78%
    13:00 +21°C° 2.1 mm 3 mps 740 mmHg 78%
    14:00 +21°C° 2.1 mm 3 mps 740 mmHg 78%
    15:00 +21°C° 0.3 mm 3 mps 739 mmHg 80%
    16:00 +21°C° 0.3 mm 3 mps 739 mmHg 81%
    17:00 +21°C° 0.3 mm 3 mps 738 mmHg 82%
    18:00 +19°C° 0.5 mm 3 mps 738 mmHg 85%
    19:00 +18°C° 0.5 mm 2 mps 738 mmHg 88%
    20:00 +17°C° 0.5 mm 2 mps 738 mmHg 91%
    21:00 +17°C° 0 mm 2 mps 737 mmHg 91%
    22:00 +16°C° 0 mm 2 mps 737 mmHg 92%
    23:00 +16°C° 0 mm 2 mps 737 mmHg 92%

    26 May, Sunday

    Time Temperature Precipitation Wind Pressure Humidity
    00:00 +15°C° 0.1 mm 2 mps 737 mmHg 93%
    01:00 +15°C° 0.1 mm 2 mps 737 mmHg 93%
    02:00 +14°C° 0.1 mm 1 mps 737 mmHg 93%
    03:00 +15°C° 0.3 mm 2 mps 737 mmHg 94%
    04:00 +15°C° 0.3 mm 2 mps 737 mmHg 94%
    05:00 +15°C° 0.3 mm 2 mps 737 mmHg 95%
    06:00 +16°C° 0.4 mm 2 mps 737 mmHg 94%
    07:00 +17°C° 0.4 mm 2 mps 737 mmHg 92%
    08:00 +17°C° 0.4 mm 2 mps 737 mmHg 91%
    09:00 +18°C° 0.1 mm 3 mps 737 mmHg 85%
    10:00 +20°C° 0.1 mm 4 mps 737 mmHg 78%
    11:00 +21°C° 0.1 mm 5 mps 737 mmHg 72%
    12:00 +21°C° 0 mm 5 mps 738 mmHg 68%
    13:00 +22°C° 0 mm 5 mps 738 mmHg 63%
    14:00 +22°C° 0 mm 4 mps 738 mmHg 59%
    15:00 +22°C° 0 mm 4 mps 738 mmHg 62%
    16:00 +21°C° 0 mm 4 mps 738 mmHg 66%
    17:00 +21°C° 0 mm 3 mps 738 mmHg 69%
    18:00 +19°C° 0 mm 3 mps 738 mmHg 72%
    19:00 +17°C° 0 mm 3 mps 739 mmHg 76%
    20:00 +14°C° 0 mm 3 mps 739 mmHg 79%
    21:00 +13°C° 0 mm 3 mps 739 mmHg 82%
    22:00 +12°C° 0 mm 3 mps 739 mmHg 85%
    23:00 +12°C° 0 mm 3 mps 739 mmHg 88%

    27 May, Monday

    Time Temperature Precipitation Wind Pressure Humidity
    00:00 +11°C° 0 mm 3 mps 738 mmHg 88%
    01:00 +11°C° 0 mm 3 mps 738 mmHg 89%
    02:00 +11°C° 0 mm 3 mps 738 mmHg 89%
    03:00 +11°C° 2.1 mm 4 mps 738 mmHg 90%
    04:00 +12°C° 2.1 mm 4 mps 738 mmHg 92%
    05:00 +12°C° 2.1 mm 5 mps 738 mmHg 93%
    06:00 +11°C° 0.2 mm 6 mps 738 mmHg 89%
    07:00 +11°C° 0.2 mm 6 mps 739 mmHg 84%
    08:00 +11°C° 0.2 mm 7 mps 739 mmHg 80%
    09:00 +11°C° 0.9 mm 8 mps 739 mmHg 79%
    10:00 +11°C° 0.9 mm 8 mps 740 mmHg 78%
    11:00 +11°C° 0.9 mm 9 mps 740 mmHg 77%
    12:00 +12°C° 0.2 mm 8 mps 741 mmHg 73%
    13:00 +13°C° 0.2 mm 8 mps 741 mmHg 69%
    14:00 +15°C° 0.2 mm 8 mps 742 mmHg 65%
    15:00 +15°C° 0 mm 7 mps 742 mmHg 66%
    16:00 +15°C° 0 mm 6 mps 743 mmHg 67%
    17:00 +15°C° 0 mm 5 mps 743 mmHg 67%
    18:00 +13°C° 0 mm 5 mps 744 mmHg 71%
    19:00 +12°C° 0 mm 4 mps 744 mmHg 75%
    20:00 +11°C° 0 mm 4 mps 745 mmHg 79%
    21:00 +10°C° 0 mm 4 mps 745 mmHg 83%
    22:00 +8°C° 0 mm 4 mps 746 mmHg 86%
    23:00 +9°C° 0 mm 3 mps 746 mmHg 89%

    28 May, Tuesday

    Time Temperature Precipitation Wind Pressure Humidity
    00:00 +8°C° 0 mm 3 mps 747 mmHg 91%
    01:00 +8°C° 0 mm 3 mps 747 mmHg 93%
    02:00 +8°C° 0 mm 3 mps 747 mmHg 95%
    03:00 +8°C° 0 mm 3 mps 748 mmHg 94%
    04:00 +9°C° 0 mm 3 mps 748 mmHg 93%
    05:00 +9°C° 0 mm 3 mps 748 mmHg 92%
    06:00 +11°C° 0 mm 3 mps 749 mmHg 87%
    07:00 +13°C° 0 mm 3 mps 749 mmHg 81%
    08:00 +16°C° 0 mm 3 mps 749 mmHg 76%
    09:00 +17°C° 0 mm 3 mps 749 mmHg 72%
    10:00 +19°C° 0 mm 4 mps 749 mmHg 68%
    11:00 +20°C° 0 mm 4 mps 749 mmHg 65%
    12:00 +21°C° 0 mm 4 mps 749 mmHg 64%
    13:00 +21°C° 0 mm 4 mps 749 mmHg 64%
    14:00 +21°C° 0 mm 4 mps 749 mmHg 63%
    15:00 +21°C° 0 mm 4 mps 749 mmHg 67%
    16:00 +21°C° 0 mm 3 mps 748 mmHg 71%
    17:00 +20°C° 0 mm 3 mps 748 mmHg 76%
    18:00 +19°C° 0 mm 3 mps 748 mmHg 78%
    19:00 +18°C° 0 mm 3 mps 749 mmHg 81%
    20:00 +17°C° 0 mm 3 mps 749 mmHg 84%
    21:00 +16°C° 0 mm 3 mps 749 mmHg 83%
    22:00 +16°C° 0 mm 3 mps 749 mmHg 83%
    23:00 +16°C° 0 mm 2 mps 749 mmHg 83%
    Show more